EUTELSAT HOT BIRD 13B

Last updated on Mon Jun 14 2021 03:04:01 GMT+0000 (Coordinated Universal Time)

1 29270U 06032A 21164.68589749 .00000098 00000-0 00000+0 0 9997 2 29270 0.0647 0.1177 0003756 70.9425 91.0818 1.00273614 54519
UTC large
Height (km)
Speed (km/s)
/
Latitude / Longitude
Inclination (degrees)
Orbital Period (minutes)
Azimuth
Elevation
Range (km)
Doppler Factor

Next 0 passes for location: London (51.5072 / 0.1276)

Sorry there are no passes over London.